EW8277 Weather Reports


Display with metric or nautical units.
time (UTC)temp
F
wind
direction
speed
MPH
gust
MPH
rain 1hr
in
rain 24hr
in
rain mn
in
humidity
%
barometer
mb
20260502233025 58 154 0.0 0.0 0.00 0.00 0.00 69 1011.2
20260502231507 58 154 0.0 0.0 0.00 0.00 0.00 67 1011.1
20260502230006 59 154 0.0 0.0 0.00 0.00 0.00 66 1011.1
20260502224548 59 154 0.0 0.0 0.00 0.00 0.00 66 1011.0
20260502223100 58 154 0.0 0.0 0.00 0.00 0.00 66 1011.0
20260502221536 58 154 0.0 0.0 0.00 0.00 0.00 67 1011.0
20260502220040 58 20 0.0 0.0 0.00 0.00 0.00 65 1010.9
20260502214542 58 20 0.0 0.0 0.00 0.00 0.00 65 1010.9
20260502213037 58 20 0.0 0.0 0.00 0.00 0.00 65 1010.8
20260502211535 59 29 0.0 0.0 0.00 0.00 0.00 65 1010.7
20260502210029 59 46 0.0 0.0 0.00 0.00 0.00 67 1010.8
20260502204537 59 46 0.0 0.0 0.00 0.00 0.00 67 1010.8
20260502203041 59 59 0.0 0.0 0.00 0.00 0.00 67 1010.8
20260502201507 60 24 0.0 0.0 0.00 0.00 0.00 68 1010.8
20260502200003 60 71 0.0 0.0 0.00 0.00 0.00 66 1010.8
20260502194543 60 71 0.0 0.0 0.00 0.00 0.00 66 1010.9
20260502193037 61 72 0.0 0.0 0.00 0.00 0.00 63 1011.1
20260502191521 61 71 0.0 1.0 0.00 0.00 0.00 65 1011.1
20260502190020 61 45 0.0 0.0 0.00 0.00 0.00 65 1011.1
20260502184515 60 45 0.0 0.0 0.00 0.00 0.00 65 1011.2
20260502183008 60 45 0.0 0.0 0.00 0.00 0.00 66 1011.4
20260502181504 59 45 0.0 0.0 0.00 0.00 0.00 67 1011.7
20260502163037 57 42 0.0 0.0 0.00 0.00 0.00 68 1012.6
20260502161525 57 24 0.0 0.0 0.00 0.00 0.00 68 1013.2
20260502151559 56 63 0.0 0.0 0.00 0.00 0.00 66 1012.7
20260502123031 54 65 0.0 0.0 0.00 0.00 0.00 63 1012.4
20260502121524 54 77 0.0 0.0 0.00 0.00 0.00 57 1012.1
20260502114606 53 198 0.0 0.0 0.00 0.00 0.00 48 1012.0
20260502113109 53 136 0.0 0.0 0.00 0.00 0.00 47 1012.0
20260502111551 53 136 0.0 0.0 0.00 0.00 0.00 46 1011.9
20260502110047 54 136 0.0 0.0 0.00 0.00 0.00 46 1012.2
20260502104542 54 136 0.0 0.0 0.00 0.00 0.00 43 1012.3
20260502103039 54 136 0.0 0.0 0.00 0.00 0.00 31 1012.2
20260502101539 54 136 0.0 0.0 0.00 0.00 0.00 11 1012.3
20260502080108 53 136 0.0 0.0 0.00 0.00 0.00 2 1011.5
20260502070036 53 136 0.0 0.0 0.00 0.00 0.00 100 1011.3
20260502064530 52 136 0.0 0.0 0.00 0.00 0.00 100 1011.3
20260502063011 52 136 0.0 0.0 0.00 0.00 0.00 100 1011.5
20260502061505 52 136 0.0 0.0 0.00 0.00 0.00 100 1011.5
20260502060050 52 136 0.0 0.0 0.00 0.00 0.00 100 1011.4
20260502054539 53 136 0.0 0.0 0.00 0.00 0.00 100 1011.6
20260502053024 53 136 0.0 0.0 0.00 0.00 0.00 100 1011.8
20260502051527 53 136 0.0 0.0 0.00 0.00 0.00 1 1011.9
20260502050015 53 136 0.0 0.0 0.00 0.00 0.00 6 1012.1
20260502044510 53 136 0.0 0.0 0.00 0.00 0.00 7 1012.1
20260502043007 53 136 0.0 0.0 0.00 0.00 0.00 13 1012.2
20260502041507 53 136 0.0 0.0 0.00 0.00 0.00 14 1012.1
20260502040005 53 136 0.0 0.0 0.00 0.00 0.00 16 1012.3
20260502034504 53 136 0.0 0.0 0.00 0.00 0.00 19 1012.5
20260502033048 53 136 0.0 0.0 0.00 0.00 0.00 21 1012.4
20260502031543 53 136 0.0 0.0 0.00 0.00 0.00 26 1012.3
20260502030030 53 136 0.0 0.0 0.00 0.00 0.00 33 1012.5
20260502024529 54 136 0.0 0.0 0.00 0.00 0.00 35 1012.6
20260502023025 54 136 0.0 0.0 0.00 0.00 0.00 40 1012.5
20260502021527 54 136 0.0 0.0 0.00 0.00 0.00 43 1012.6
20260502020021 54 136 0.0 0.0 0.00 0.00 0.00 46 1012.5
20260502014520 55 136 0.0 0.0 0.00 0.00 0.00 50 1012.6
20260502013017 55 136 0.0 0.0 0.00 0.00 0.00 54 1012.6
20260502011516 55 136 0.0 0.0 0.00 0.00 0.00 58 1012.4
20260502010003 55 136 0.0 0.0 0.00 0.00 0.00 62 1012.2
20260502004602 55 136 0.0 0.0 0.00 0.00 0.00 65 1012.0
20260502003057 55 136 0.0 0.0 0.00 0.00 0.00 67 1011.9
20260502001558 56 136 0.0 0.0 0.00 0.00 0.00 69 1011.6
20260502000059 56 136 0.0 0.0 0.00 0.00 0.00 70 1011.6
20260501234556 57 137 0.0 0.0 0.00 0.00 0.00 71 1011.7